| time (UTC) | temp F | wind direction | speed MPH | gust MPH | rain 1hr in | rain 24hr in | rain mn in | humidity % | barometer mb |
| 20260507010738 | 45 | 168 | 1.0 | 2.0 | 0.00 | 0.41 | 0.41 | 81 | 1008.9 |
| 20260507010234 | 45 | 185 | 1.0 | 1.0 | 0.00 | 0.41 | 0.41 | 82 | 1009.0 |
| 20260507005732 | 45 | 166 | 0.0 | 1.0 | 0.00 | 0.41 | 0.41 | 81 | 1008.7 |
| 20260507005229 | 45 | 180 | 1.0 | 1.0 | 0.00 | 0.41 | 0.41 | 81 | 1008.6 |
| 20260507004725 | 45 | 187 | 0.0 | 1.0 | 0.00 | 0.41 | 0.41 | 81 | 1008.6 |
| 20260507004223 | 45 | 167 | 0.0 | 1.0 | 0.00 | 0.41 | 0.41 | 83 | 1008.7 |
| 20260507003719 | 45 | 181 | 1.0 | 1.0 | 0.00 | 0.41 | 0.41 | 83 | 1008.6 |
| 20260507003214 | 45 | 175 | 0.0 | 1.0 | 0.00 | 0.41 | 0.41 | 82 | 1008.3 |
| 20260507002710 | 45 | 206 | 1.0 | 1.0 | 0.00 | 0.41 | 0.41 | 82 | 1008.5 |
| 20260507002207 | 45 | 178 | 1.0 | 1.0 | 0.00 | 0.41 | 0.41 | 82 | 1008.4 |
| 20260507001703 | 45 | 192 | 1.0 | 1.0 | 0.00 | 0.41 | 0.41 | 82 | 1008.2 |
| 20260507001201 | 45 | 246 | 2.0 | 2.0 | 0.00 | 0.41 | 0.41 | 81 | 1008.6 |
| 20260507000657 | 45 | 191 | 1.0 | 1.0 | 0.00 | 0.41 | 0.41 | 82 | 1008.4 |
| 20260507000153 | 46 | 171 | 0.0 | 0.0 | 0.00 | 0.41 | 0.41 | 81 | 1008.4 |
| 20260506235650 | 46 | 173 | 0.0 | 1.0 | 0.00 | 0.41 | 0.41 | 81 | 1008.4 |
| 20260506235145 | 46 | 197 | 1.0 | 1.0 | 0.00 | 0.41 | 0.41 | 80 | 1008.4 |
| 20260506234643 | 46 | 174 | 1.0 | 1.0 | 0.00 | 0.41 | 0.41 | 79 | 1008.2 |
| 20260506234139 | 46 | 179 | 0.0 | 0.0 | 0.00 | 0.41 | 0.41 | 79 | 1008.4 |
| 20260506233637 | 46 | 246 | 2.0 | 2.0 | 0.00 | 0.41 | 0.41 | 78 | 1008.2 |
| 20260506233134 | 46 | 187 | 1.0 | 1.0 | 0.00 | 0.41 | 0.41 | 78 | 1008.1 |
| 20260506232630 | 46 | 176 | 0.0 | 1.0 | 0.00 | 0.41 | 0.41 | 77 | 1008.3 |
| 20260506232125 | 47 | 175 | 0.0 | 1.0 | 0.00 | 0.41 | 0.41 | 76 | 1008.0 |
| 20260506231623 | 47 | 172 | 0.0 | 1.0 | 0.00 | 0.41 | 0.41 | 77 | 1008.1 |
| 20260506231121 | 47 | 173 | 0.0 | 0.0 | 0.00 | 0.41 | 0.41 | 75 | 1007.8 |
| 20260506230617 | 47 | 179 | 0.0 | 1.0 | 0.00 | 0.41 | 0.41 | 75 | 1008.1 |
| 20260506230115 | 47 | 180 | 0.0 | 0.0 | 0.00 | 0.41 | 0.41 | 75 | 1008.1 |
| 20260506225611 | 47 | 183 | 1.0 | 1.0 | 0.00 | 0.41 | 0.41 | 73 | 1008.1 |
| 20260506225107 | 47 | 195 | 1.0 | 1.0 | 0.00 | 0.41 | 0.41 | 74 | 1008.0 |
| 20260506224604 | 47 | 168 | 0.0 | 0.0 | 0.00 | 0.41 | 0.41 | 76 | 1008.2 |
| 20260506224101 | 47 | 174 | 1.0 | 1.0 | 0.00 | 0.41 | 0.41 | 75 | 1008.2 |
| 20260506223557 | 47 | 172 | 0.0 | 0.0 | 0.00 | 0.41 | 0.41 | 75 | 1008.1 |
| 20260506223053 | 48 | 127 | 0.0 | 1.0 | 0.00 | 0.41 | 0.41 | 77 | 1007.9 |
| 20260506222550 | 48 | 106 | 1.0 | 1.0 | 0.00 | 0.41 | 0.41 | 74 | 1008.1 |
| 20260506222046 | 48 | 94 | 0.0 | 1.0 | 0.00 | 0.41 | 0.41 | 76 | 1008.3 |
| 20260506221544 | 48 | 165 | 1.0 | 2.0 | 0.00 | 0.41 | 0.41 | 77 | 1008.2 |
| 20260506221042 | 48 | 177 | 1.0 | 1.0 | 0.00 | 0.41 | 0.41 | 75 | 1008.2 |
| 20260506220537 | 48 | 193 | 1.0 | 1.0 | 0.00 | 0.41 | 0.41 | 77 | 1008.3 |
| 20260506220033 | 48 | 149 | 0.0 | 1.0 | 0.00 | 0.41 | 0.41 | 74 | 1008.2 |
| 20260506215531 | 47 | 94 | 1.0 | 1.0 | 0.00 | 0.41 | 0.41 | 74 | 1008.0 |
| 20260506215026 | 47 | 132 | 0.0 | 1.0 | 0.00 | 0.41 | 0.41 | 76 | 1008.1 |
| 20260506214523 | 47 | 139 | 1.0 | 1.0 | 0.00 | 0.41 | 0.41 | 74 | 1008.3 |
| 20260506214020 | 47 | 130 | 0.0 | 0.0 | 0.00 | 0.41 | 0.41 | 80 | 1008.1 |
| 20260506213519 | 47 | 286 | 0.0 | 0.0 | 0.00 | 0.41 | 0.41 | 81 | 1008.4 |
| 20260506213015 | 47 | 317 | 1.0 | 1.0 | 0.00 | 0.41 | 0.41 | 79 | 1008.1 |
| 20260506212512 | 47 | 350 | 3.0 | 3.0 | 0.00 | 0.41 | 0.41 | 76 | 1008.0 |
| 20260506212007 | 47 | 222 | 1.0 | 1.0 | 0.00 | 0.41 | 0.41 | 78 | 1008.2 |
| 20260506211502 | 47 | 17 | 2.0 | 2.0 | 0.00 | 0.41 | 0.41 | 75 | 1008.3 |
| 20260506211000 | 47 | 83 | 0.0 | 1.0 | 0.00 | 0.41 | 0.41 | 76 | 1008.4 |
| 20260506210456 | 47 | 197 | 1.0 | 2.0 | 0.00 | 0.41 | 0.41 | 76 | 1008.3 |
| 20260506205948 | 47 | 95 | 0.0 | 1.0 | 0.00 | 0.41 | 0.41 | 77 | 1008.1 |
| 20260506205444 | 47 | 187 | 1.0 | 1.0 | 0.00 | 0.41 | 0.41 | 75 | 1008.5 |
| 20260506204940 | 47 | 131 | 0.0 | 0.0 | 0.00 | 0.41 | 0.41 | 80 | 1008.2 |
| 20260506204438 | 47 | 74 | 1.0 | 1.0 | 0.00 | 0.41 | 0.41 | 75 | 1008.4 |
| 20260506203935 | 47 | 171 | 0.0 | 0.0 | 0.00 | 0.41 | 0.41 | 80 | 1008.4 |
| 20260506203432 | 47 | 257 | 1.0 | 2.0 | 0.00 | 0.41 | 0.41 | 76 | 1008.1 |
| 20260506202929 | 47 | 216 | 2.0 | 2.0 | 0.00 | 0.41 | 0.41 | 76 | 1008.4 |
| 20260506202427 | 48 | 24 | 3.0 | 3.0 | 0.00 | 0.41 | 0.41 | 76 | 1008.3 |
| 20260506201923 | 48 | 298 | 2.0 | 2.0 | 0.00 | 0.41 | 0.41 | 77 | 1008.4 |
| 20260506201420 | 48 | 26 | 1.0 | 2.0 | 0.00 | 0.41 | 0.41 | 78 | 1008.3 |
| 20260506200917 | 47 | 347 | 2.0 | 2.0 | 0.00 | 0.41 | 0.41 | 81 | 1008.4 |
| 20260506200413 | 46 | 165 | 0.0 | 0.0 | 0.00 | 0.41 | 0.41 | 82 | 1008.4 |
| 20260506195910 | 46 | 70 | 1.0 | 1.0 | 0.00 | 0.41 | 0.41 | 80 | 1008.5 |
| 20260506195407 | 46 | 263 | 2.0 | 2.0 | 0.00 | 0.41 | 0.41 | 80 | 1008.6 |
| 20260506194904 | 46 | 104 | 1.0 | 1.0 | 0.00 | 0.41 | 0.41 | 83 | 1008.7 |
| 20260506194401 | 46 | 341 | 1.0 | 2.0 | 0.00 | 0.41 | 0.41 | 81 | 1008.8 |
| 20260506193858 | 46 | 113 | 0.0 | 0.0 | 0.00 | 0.41 | 0.41 | 82 | 1008.7 |
| 20260506193354 | 46 | 19 | 2.0 | 3.0 | 0.00 | 0.41 | 0.41 | 81 | 1008.5 |
| 20260506192850 | 46 | 329 | 2.0 | 3.0 | 0.00 | 0.41 | 0.41 | 81 | 1008.8 |
| 20260506192347 | 46 | 339 | 2.0 | 2.0 | 0.00 | 0.41 | 0.41 | 80 | 1008.4 |
| 20260506191844 | 47 | 102 | 1.0 | 1.0 | 0.00 | 0.41 | 0.41 | 81 | 1008.4 |
| 20260506191341 | 46 | 143 | 0.0 | 0.0 | 0.00 | 0.41 | 0.41 | 81 | 1008.4 |
| 20260506190838 | 46 | 83 | 1.0 | 1.0 | 0.00 | 0.41 | 0.41 | 77 | 1008.7 |
| 20260506190334 | 46 | 118 | 0.0 | 0.0 | 0.00 | 0.41 | 0.41 | 81 | 1008.3 |
| 20260506185831 | 46 | 35 | 2.0 | 2.0 | 0.00 | 0.41 | 0.41 | 78 | 1008.5 |
| 20260506185328 | 46 | 99 | 0.0 | 1.0 | 0.00 | 0.41 | 0.41 | 80 | 1008.3 |
| 20260506184825 | 46 | 112 | 0.0 | 0.0 | 0.00 | 0.41 | 0.41 | 84 | 1008.3 |
| 20260506184322 | 47 | 148 | 2.0 | 2.0 | 0.00 | 0.41 | 0.41 | 79 | 1008.2 |
| 20260506183820 | 47 | 135 | 0.0 | 0.0 | 0.00 | 0.41 | 0.41 | 79 | 1008.4 |
| 20260506183315 | 46 | 163 | 1.0 | 1.0 | 0.00 | 0.41 | 0.41 | 78 | 1008.4 |
| 20260506182812 | 46 | 78 | 1.0 | 1.0 | 0.07 | 0.41 | 0.41 | 81 | 1008.5 |
| 20260506182309 | 46 | 91 | 1.0 | 1.0 | 0.07 | 0.41 | 0.41 | 83 | 1008.6 |
| 20260506181807 | 46 | 80 | 1.0 | 1.0 | 0.00 | 0.40 | 0.40 | 79 | 1008.7 |
| 20260506181305 | 46 | 156 | 1.0 | 1.0 | 0.00 | 0.40 | 0.40 | 82 | 1008.7 |
| 20260506180802 | 46 | 149 | 0.0 | 1.0 | 0.00 | 0.40 | 0.40 | 80 | 1008.8 |
| 20260506180257 | 46 | 149 | 0.0 | 0.0 | 0.00 | 0.40 | 0.40 | 85 | 1009.1 |
| 20260506175754 | 46 | 142 | 0.0 | 0.0 | 0.00 | 0.40 | 0.40 | 86 | 1009.0 |
| 20260506175251 | 46 | 95 | 1.0 | 1.0 | 0.00 | 0.40 | 0.40 | 83 | 1009.2 |
| 20260506174748 | 45 | 154 | 0.0 | 0.0 | 0.00 | 0.40 | 0.40 | 86 | 1009.0 |
| 20260506174245 | 45 | 162 | 1.0 | 1.0 | 0.00 | 0.40 | 0.40 | 86 | 1009.0 |
| 20260506173743 | 44 | 166 | 1.0 | 1.0 | 0.00 | 0.40 | 0.40 | 88 | 1009.3 |
| 20260506173240 | 44 | 338 | 2.0 | 2.0 | 0.00 | 0.40 | 0.40 | 83 | 1009.2 |
| 20260506172736 | 44 | 342 | 2.0 | 2.0 | 0.00 | 0.40 | 0.40 | 89 | 1009.6 |
| 20260506172233 | 44 | 82 | 0.0 | 1.0 | 0.00 | 0.40 | 0.40 | 85 | 1009.5 |
| 20260506171731 | 44 | 5 | 3.0 | 3.0 | 0.00 | 0.40 | 0.40 | 84 | 1009.4 |
| 20260506171228 | 44 | 88 | 0.0 | 1.0 | 0.00 | 0.40 | 0.40 | 87 | 1009.5 |
| 20260506170725 | 44 | 116 | 0.0 | 0.0 | 0.05 | 0.40 | 0.40 | 88 | 1009.3 |
| 20260506170222 | 44 | 61 | 1.0 | 1.0 | 0.05 | 0.40 | 0.40 | 82 | 1009.4 |
| 20260506165720 | 45 | 122 | 0.0 | 1.0 | 0.00 | 0.39 | 0.39 | 88 | 1009.5 |
| 20260506165217 | 45 | 243 | 1.0 | 2.0 | 0.00 | 0.39 | 0.39 | 86 | 1009.6 |
| 20260506164714 | 44 | 139 | 1.0 | 1.0 | 0.00 | 0.39 | 0.39 | 89 | 1009.7 |
| 20260506164211 | 44 | 143 | 1.0 | 1.0 | 0.07 | 0.39 | 0.39 | 88 | 1009.6 |
| 20260506163707 | 44 | 326 | 1.0 | 1.0 | 0.07 | 0.39 | 0.39 | 87 | 1009.8 |
| 20260506163202 | 44 | 57 | 1.0 | 2.0 | 0.00 | 0.38 | 0.38 | 87 | 1009.7 |
| 20260506162659 | 44 | 84 | 1.0 | 1.0 | 0.00 | 0.38 | 0.38 | 86 | 1009.7 |
| 20260506162156 | 44 | 63 | 1.0 | 2.0 | 0.05 | 0.38 | 0.38 | 88 | 1010.0 |
| 20260506161653 | 44 | 82 | 1.0 | 1.0 | 0.05 | 0.38 | 0.38 | 88 | 1010.0 |
| 20260506161150 | 44 | 141 | 0.0 | 0.0 | 0.07 | 0.37 | 0.37 | 90 | 1010.0 |
| 20260506160648 | 44 | 156 | 0.0 | 1.0 | 0.07 | 0.37 | 0.37 | 89 | 1010.1 |
| 20260506160145 | 44 | 217 | 1.0 | 2.0 | 0.00 | 0.36 | 0.36 | 89 | 1010.2 |
| 20260506155643 | 44 | 24 | 2.0 | 2.0 | 0.05 | 0.36 | 0.36 | 88 | 1010.2 |
| 20260506155140 | 44 | 105 | 0.0 | 0.0 | 0.05 | 0.36 | 0.36 | 91 | 1010.1 |
| 20260506153242 | 44 | 334 | 3.0 | 3.0 | 0.05 | 0.34 | 0.34 | 88 | 1010.2 |
| 20260506152739 | 44 | 88 | 0.0 | 1.0 | 0.05 | 0.34 | 0.34 | 89 | 1010.4 |
| 20260506152236 | 44 | 149 | 0.0 | 1.0 | 0.07 | 0.33 | 0.33 | 89 | 1010.5 |
| 20260506151735 | 44 | 167 | 1.0 | 1.0 | 0.12 | 0.33 | 0.33 | 88 | 1010.3 |
| 20260506151231 | 44 | 123 | 0.0 | 0.0 | 0.05 | 0.32 | 0.32 | 89 | 1010.2 |
| 20260506150728 | 44 | 72 | 1.0 | 1.0 | 0.07 | 0.31 | 0.31 | 88 | 1010.2 |
| 20260506150225 | 44 | 138 | 0.0 | 1.0 | 0.07 | 0.31 | 0.31 | 90 | 1010.4 |
| 20260506145722 | 44 | 113 | 0.0 | 0.0 | 0.07 | 0.30 | 0.30 | 90 | 1010.0 |
| 20260506145218 | 44 | 100 | 0.0 | 1.0 | 0.12 | 0.30 | 0.30 | 90 | 1010.3 |
| 20260506144716 | 44 | 68 | 1.0 | 1.0 | 0.05 | 0.29 | 0.29 | 87 | 1010.4 |
| 20260506144213 | 44 | 80 | 0.0 | 1.0 | 0.07 | 0.28 | 0.28 | 90 | 1010.4 |
| 20260506143710 | 44 | 93 | 1.0 | 1.0 | 0.05 | 0.27 | 0.27 | 91 | 1010.5 |
| 20260506143208 | 44 | 110 | 0.0 | 0.0 | 0.12 | 0.27 | 0.27 | 91 | 1010.2 |
| 20260506142706 | 44 | 99 | 1.0 | 1.0 | 0.07 | 0.26 | 0.26 | 91 | 1010.1 |
| 20260506142204 | 44 | 160 | 0.0 | 0.0 | 0.05 | 0.25 | 0.25 | 90 | 1010.2 |
| 20260506141702 | 44 | 203 | 0.0 | 1.0 | 0.05 | 0.25 | 0.25 | 88 | 1010.0 |
| 20260506141159 | 44 | 183 | 1.0 | 1.0 | 0.07 | 0.24 | 0.24 | 90 | 1010.2 |
| 20260506140657 | 44 | 176 | 1.0 | 1.0 | 0.07 | 0.24 | 0.24 | 88 | 1010.1 |
| 20260506140154 | 44 | 258 | 1.0 | 2.0 | 0.05 | 0.23 | 0.23 | 90 | 1010.0 |
| 20260506135650 | 44 | 173 | 0.0 | 1.0 | 0.05 | 0.23 | 0.23 | 89 | 1010.1 |
| 20260506135147 | 44 | 184 | 1.0 | 1.0 | 0.00 | 0.22 | 0.22 | 88 | 1010.1 |
| 20260506134643 | 44 | 258 | 2.0 | 3.0 | 0.07 | 0.22 | 0.22 | 87 | 1010.2 |
| 20260506134139 | 44 | 196 | 1.0 | 1.0 | 0.07 | 0.22 | 0.22 | 89 | 1010.2 |
| 20260506133637 | 44 | 183 | 1.0 | 1.0 | 0.00 | 0.21 | 0.21 | 88 | 1010.3 |
| 20260506133134 | 44 | 181 | 1.0 | 1.0 | 0.05 | 0.21 | 0.21 | 87 | 1010.4 |
| 20260506132631 | 44 | 234 | 1.0 | 2.0 | 0.05 | 0.21 | 0.21 | 88 | 1010.3 |
| 20260506132128 | 44 | 263 | 1.0 | 2.0 | 0.07 | 0.20 | 0.20 | 87 | 1010.3 |
| 20260506131625 | 44 | 234 | 1.0 | 2.0 | 0.12 | 0.20 | 0.20 | 86 | 1010.0 |
| 20260506131121 | 44 | 161 | 0.0 | 1.0 | 0.05 | 0.19 | 0.19 | 88 | 1010.1 |
| 20260506130619 | 44 | 160 | 0.0 | 0.0 | 0.05 | 0.19 | 0.19 | 89 | 1010.3 |
| 20260506130116 | 44 | 184 | 1.0 | 1.0 | 0.07 | 0.18 | 0.18 | 89 | 1010.3 |
| 20260506125614 | 44 | 160 | 1.0 | 1.0 | 0.07 | 0.17 | 0.17 | 88 | 1010.1 |
| 20260506125112 | 44 | 177 | 1.0 | 1.0 | 0.07 | 0.17 | 0.17 | 87 | 1010.2 |
| 20260506124609 | 44 | 191 | 1.0 | 1.0 | 0.05 | 0.16 | 0.16 | 89 | 1010.3 |
| 20260506124107 | 44 | 204 | 1.0 | 2.0 | 0.12 | 0.16 | 0.16 | 88 | 1010.4 |
| 20260506123604 | 44 | 222 | 2.0 | 2.0 | 0.12 | 0.15 | 0.15 | 88 | 1010.3 |
| 20260506123103 | 44 | 250 | 0.0 | 1.0 | 0.05 | 0.14 | 0.14 | 89 | 1010.0 |
| 20260506122559 | 44 | 177 | 0.0 | 1.0 | 0.07 | 0.13 | 0.13 | 88 | 1010.1 |
| 20260506122057 | 44 | 266 | 2.0 | 2.0 | 0.07 | 0.13 | 0.13 | 86 | 1010.0 |
| 20260506121554 | 45 | 250 | 2.0 | 3.0 | 0.05 | 0.12 | 0.12 | 85 | 1009.9 |
| 20260506121050 | 45 | 229 | 2.0 | 3.0 | 0.05 | 0.12 | 0.12 | 85 | 1009.9 |
| 20260506120549 | 45 | 164 | 0.0 | 0.0 | 0.00 | 0.11 | 0.11 | 88 | 1010.0 |
| 20260506120045 | 45 | 175 | 0.0 | 1.0 | 0.07 | 0.11 | 0.11 | 87 | 1010.3 |
| 20260506115543 | 45 | 170 | 1.0 | 1.0 | 0.07 | 0.11 | 0.11 | 87 | 1010.3 |
| 20260506115042 | 45 | 229 | 1.0 | 2.0 | 0.05 | 0.10 | 0.10 | 89 | 1010.5 |
| 20260506114539 | 45 | 185 | 1.0 | 1.0 | 0.05 | 0.10 | 0.10 | 89 | 1010.5 |
| 20260506114037 | 45 | 162 | 0.0 | 0.0 | 0.07 | 0.09 | 0.09 | 90 | 1010.5 |
| 20260506113535 | 45 | 202 | 1.0 | 1.0 | 0.07 | 0.09 | 0.09 | 90 | 1010.7 |
| 20260506113032 | 45 | 172 | 1.0 | 1.0 | 0.05 | 0.08 | 0.08 | 90 | 1010.5 |
| 20260506112528 | 45 | 177 | 1.0 | 1.0 | 0.12 | 0.08 | 0.08 | 89 | 1010.5 |
| 20260506112025 | 45 | 186 | 1.0 | 2.0 | 0.07 | 0.07 | 0.07 | 88 | 1010.6 |
| 20260506111524 | 45 | 176 | 1.0 | 1.0 | 0.05 | 0.06 | 0.06 | 88 | 1010.5 |
| 20260506111020 | 45 | 194 | 2.0 | 2.0 | 0.05 | 0.06 | 0.06 | 87 | 1010.6 |
| 20260506110518 | 45 | 162 | 0.0 | 1.0 | 0.00 | 0.05 | 0.05 | 87 | 1010.3 |
| 20260506110015 | 45 | 169 | 0.0 | 1.0 | 0.07 | 0.05 | 0.05 | 88 | 1010.1 |
| 20260506105511 | 45 | 167 | 1.0 | 1.0 | 0.07 | 0.05 | 0.05 | 87 | 1010.0 |
| 20260506105008 | 45 | 198 | 2.0 | 2.0 | 0.00 | 0.04 | 0.04 | 87 | 1010.1 |
| 20260506104507 | 45 | 159 | 1.0 | 1.0 | 0.07 | 0.04 | 0.04 | 87 | 1009.9 |
| 20260506104004 | 46 | 164 | 0.0 | 0.0 | 0.12 | 0.04 | 0.04 | 85 | 1010.1 |
| 20260506103501 | 46 | 217 | 1.0 | 1.0 | 0.05 | 0.03 | 0.03 | 85 | 1009.9 |
| 20260506102957 | 46 | 166 | 0.0 | 0.0 | 0.07 | 0.02 | 0.02 | 83 | 1010.0 |
| 20260506102456 | 46 | 237 | 3.0 | 3.0 | 0.07 | 0.02 | 0.02 | 85 | 1009.9 |
| 20260506101953 | 46 | 180 | 1.0 | 1.0 | 0.05 | 0.01 | 0.01 | 85 | 1010.0 |
| 20260506101449 | 46 | 187 | 3.0 | 3.0 | 0.05 | 0.01 | 0.01 | 83 | 1009.9 |
| 20260506100947 | 46 | 173 | 2.0 | 2.0 | 0.00 | 0.00 | 0.00 | 81 | 1009.9 |
| 20260506100445 | 47 | 170 | 4.0 | 6.0 | 0.00 | 0.00 | 0.00 | 80 | 1010.0 |
| 20260506095943 | 47 | 158 | 1.0 | 2.0 | 0.00 | 0.00 | 0.00 | 78 | 1009.8 |
| 20260506095441 | 47 | 183 | 2.0 | 2.0 | 0.00 | 0.00 | 0.00 | 78 | 1009.8 |
| 20260506094937 | 47 | 172 | 3.0 | 3.0 | 0.00 | 0.00 | 0.00 | 79 | 1009.9 |
| 20260506094436 | 47 | 162 | 2.0 | 2.0 | 0.00 | 0.00 | 0.00 | 77 | 1009.8 |
| 20260506093933 | 48 | 182 | 2.0 | 2.0 | 0.00 | 0.00 | 0.00 | 75 | 1009.9 |
| 20260506093431 | 48 | 165 | 3.0 | 3.0 | 0.00 | 0.00 | 0.00 | 75 | 1009.6 |
| 20260506092928 | 48 | 177 | 0.0 | 1.0 | 0.00 | 0.00 | 0.00 | 75 | 1009.2 |
| 20260506092426 | 48 | 175 | 0.0 | 1.0 | 0.00 | 0.00 | 0.00 | 73 | 1009.5 |
| 20260506091922 | 48 | 208 | 2.0 | 3.0 | 0.00 | 0.00 | 0.00 | 72 | 1009.4 |
| 20260506091421 | 48 | 211 | 3.0 | 3.0 | 0.00 | 0.00 | 0.00 | 73 | 1009.3 |
| 20260506090917 | 48 | 221 | 2.0 | 3.0 | 0.00 | 0.00 | 0.00 | 73 | 1009.1 |
| 20260506090415 | 48 | 225 | 3.0 | 3.0 | 0.00 | 0.00 | 0.00 | 72 | 1009.2 |
| 20260506085912 | 48 | 211 | 4.0 | 6.0 | 0.00 | 0.00 | 0.00 | 72 | 1009.0 |
| 20260506085408 | 48 | 261 | 2.0 | 3.0 | 0.00 | 0.00 | 0.00 | 73 | 1009.2 |
| 20260506084904 | 48 | 255 | 5.0 | 7.0 | 0.00 | 0.00 | 0.00 | 73 | 1009.5 |
| 20260506084401 | 48 | 238 | 3.0 | 3.0 | 0.00 | 0.00 | 0.00 | 73 | 1009.2 |
| 20260506083858 | 48 | 225 | 1.0 | 2.0 | 0.00 | 0.00 | 0.00 | 73 | 1009.3 |
| 20260506083355 | 48 | 230 | 2.0 | 2.0 | 0.00 | 0.00 | 0.00 | 74 | 1009.4 |
| 20260506082852 | 48 | 256 | 5.0 | 6.0 | 0.00 | 0.00 | 0.00 | 73 | 1009.3 |
| 20260506082349 | 48 | 263 | 3.0 | 5.0 | 0.00 | 0.00 | 0.00 | 73 | 1009.2 |
| 20260506081845 | 48 | 207 | 4.0 | 7.0 | 0.00 | 0.00 | 0.00 | 73 | 1009.3 |
| 20260506081344 | 48 | 285 | 3.0 | 5.0 | 0.00 | 0.00 | 0.00 | 73 | 1009.2 |
| 20260506080841 | 49 | 235 | 3.0 | 6.0 | 0.00 | 0.00 | 0.00 | 72 | 1008.9 |
| 20260506080337 | 49 | 183 | 4.0 | 7.0 | 0.00 | 0.00 | 0.00 | 72 | 1009.1 |
| 20260506073321 | 49 | 199 | 4.0 | 6.0 | 0.00 | 0.00 | 0.00 | 72 | 1009.2 |
| 20260506072818 | 49 | 191 | 1.0 | 1.0 | 0.00 | 0.00 | 0.00 | 72 | 1009.2 |
| 20260506072316 | 49 | 255 | 5.0 | 7.0 | 0.00 | 0.00 | 0.00 | 72 | 1009.1 |
| 20260506071813 | 49 | 286 | 7.0 | 11.0 | 0.00 | 0.00 | 0.00 | 72 | 1009.1 |
| 20260506071311 | 49 | 243 | 5.0 | 6.0 | 0.00 | 0.00 | 0.00 | 71 | 1009.0 |
| 20260506070808 | 49 | 243 | 3.0 | 5.0 | 0.00 | 0.00 | 0.00 | 72 | 1008.9 |
| 20260506070305 | 49 | 217 | 4.0 | 5.0 | 0.00 | 0.00 | 0.00 | 71 | 1008.8 |
| 20260506062242 | 49 | 252 | 1.0 | 2.0 | 0.00 | 0.00 | 0.00 | 72 | 1008.8 |
| 20260506061738 | 49 | 195 | 1.0 | 2.0 | 0.00 | 0.00 | 0.00 | 73 | 1008.8 |
| 20260506061235 | 49 | 221 | 3.0 | 3.0 | 0.00 | 0.00 | 0.00 | 73 | 1008.7 |
| 20260506060734 | 49 | 166 | 5.0 | 11.0 | 0.00 | 0.00 | 0.00 | 73 | 1008.7 |
| 20260506060231 | 49 | 209 | 5.0 | 9.0 | 0.00 | 0.00 | 0.00 | 73 | 1008.6 |
| 20260506051203 | 51 | 234 | 4.0 | 5.0 | 0.00 | 0.00 | 0.00 | 76 | 1008.6 |
| 20260506050701 | 51 | 201 | 3.0 | 5.0 | 0.00 | 0.00 | 0.00 | 78 | 1008.4 |
| 20260506050158 | 51 | 194 | 2.0 | 2.0 | 0.00 | 0.00 | 0.00 | 77 | 1008.6 |
| 20260506044649 | 51 | 212 | 2.0 | 2.0 | 0.00 | 0.00 | 0.00 | 78 | 1008.6 |
| 20260506044145 | 51 | 237 | 2.0 | 2.0 | 0.00 | 0.00 | 0.00 | 77 | 1008.5 |
| 20260506043643 | 51 | 258 | 4.0 | 5.0 | 0.00 | 0.00 | 0.00 | 77 | 1008.4 |
| 20260506043140 | 51 | 221 | 4.0 | 7.0 | 0.00 | 0.00 | 0.00 | 77 | 1008.2 |
| 20260506042639 | 51 | 235 | 6.0 | 7.0 | 0.00 | 0.00 | 0.00 | 77 | 1008.0 |
| 20260506042137 | 51 | 244 | 7.0 | 10.0 | 0.00 | 0.00 | 0.00 | 76 | 1007.9 |
| 20260506041635 | 51 | 215 | 7.0 | 9.0 | 0.00 | 0.00 | 0.00 | 75 | 1007.7 |
| 20260506041132 | 52 | 265 | 4.0 | 5.0 | 0.00 | 0.00 | 0.00 | 75 | 1007.8 |
| 20260506040629 | 52 | 266 | 6.0 | 9.0 | 0.00 | 0.00 | 0.00 | 74 | 1007.9 |
| 20260506040126 | 52 | 243 | 8.0 | 13.0 | 0.00 | 0.00 | 0.00 | 74 | 1007.6 |
| 20260506035623 | 52 | 271 | 4.0 | 6.0 | 0.00 | 0.08 | 0.08 | 74 | 1007.8 |
| 20260506035119 | 52 | 231 | 2.0 | 2.0 | 0.00 | 0.08 | 0.08 | 74 | 1007.8 |
| 20260506034616 | 52 | 224 | 3.0 | 5.0 | 0.00 | 0.08 | 0.08 | 74 | 1007.8 |
| 20260506034108 | 52 | 229 | 5.0 | 5.0 | 0.00 | 0.08 | 0.08 | 74 | 1007.3 |
| 20260506033605 | 52 | 244 | 9.0 | 10.0 | 0.00 | 0.08 | 0.08 | 73 | 1007.3 |
| 20260506033102 | 52 | 200 | 5.0 | 7.0 | 0.00 | 0.08 | 0.08 | 73 | 1007.2 |
| 20260506032600 | 52 | 181 | 7.0 | 9.0 | 0.00 | 0.08 | 0.08 | 74 | 1007.0 |
| 20260506032056 | 52 | 251 | 8.0 | 10.0 | 0.00 | 0.08 | 0.08 | 74 | 1006.9 |
| 20260506031554 | 53 | 248 | 8.0 | 9.0 | 0.00 | 0.08 | 0.08 | 74 | 1006.8 |
| 20260506031050 | 53 | 267 | 5.0 | 6.0 | 0.00 | 0.08 | 0.08 | 74 | 1007.0 |
| 20260506030549 | 53 | 231 | 5.0 | 6.0 | 0.00 | 0.08 | 0.08 | 72 | 1007.2 |
| 20260506030046 | 54 | 271 | 7.0 | 9.0 | 0.00 | 0.08 | 0.08 | 71 | 1006.8 |
| 20260506025542 | 54 | 279 | 7.0 | 10.0 | 0.00 | 0.08 | 0.08 | 70 | 1006.9 |
| 20260506025038 | 54 | 264 | 9.0 | 13.0 | 0.00 | 0.08 | 0.08 | 69 | 1006.9 |
| 20260506024536 | 54 | 282 | 9.0 | 13.0 | 0.00 | 0.08 | 0.08 | 69 | 1006.9 |
| 20260506024032 | 54 | 233 | 8.0 | 10.0 | 0.00 | 0.08 | 0.08 | 71 | 1006.6 |
| 20260506023528 | 55 | 218 | 7.0 | 10.0 | 0.00 | 0.08 | 0.08 | 71 | 1006.9 |
| 20260506023026 | 55 | 237 | 5.0 | 6.0 | 0.00 | 0.08 | 0.08 | 70 | 1006.6 |
| 20260506022523 | 55 | 271 | 8.0 | 11.0 | 0.00 | 0.08 | 0.08 | 68 | 1006.8 |
| 20260506022020 | 55 | 224 | 7.0 | 11.0 | 0.00 | 0.08 | 0.08 | 67 | 1006.9 |
| 20260506021518 | 56 | 266 | 8.0 | 11.0 | 0.00 | 0.08 | 0.08 | 67 | 1006.7 |
| 20260506021015 | 56 | 244 | 8.0 | 10.0 | 0.00 | 0.08 | 0.08 | 65 | 1006.9 |
| 20260506020513 | 56 | 238 | 8.0 | 13.0 | 0.00 | 0.08 | 0.08 | 64 | 1006.6 |
| 20260506020010 | 56 | 277 | 5.0 | 9.0 | 0.00 | 0.08 | 0.08 | 64 | 1006.5 |
| 20260506015507 | 57 | 254 | 4.0 | 7.0 | 0.00 | 0.08 | 0.08 | 63 | 1006.6 |
| 20260506015003 | 57 | 269 | 7.0 | 10.0 | 0.00 | 0.08 | 0.08 | 63 | 1006.7 |
| 20260506014501 | 57 | 276 | 6.0 | 9.0 | 0.00 | 0.08 | 0.08 | 64 | 1006.4 |
| 20260506013957 | 57 | 260 | 8.0 | 9.0 | 0.00 | 0.08 | 0.08 | 65 | 1006.5 |
| 20260506013455 | 58 | 287 | 4.0 | 6.0 | 0.00 | 0.08 | 0.08 | 63 | 1006.4 |
| 20260506012951 | 59 | 248 | 6.0 | 9.0 | 0.00 | 0.08 | 0.08 | 60 | 1006.2 |
| 20260506012448 | 59 | 300 | 7.0 | 8.0 | 0.00 | 0.08 | 0.08 | 57 | 1006.0 |
| 20260506011945 | 60 | 213 | 5.0 | 6.0 | 0.00 | 0.08 | 0.08 | 54 | 1005.8 |
| 20260506011442 | 60 | 209 | 3.0 | 5.0 | 0.00 | 0.08 | 0.08 | 54 | 1005.6 |